Time,TemperatureF,DewpointF,PressureIn,WindDirection,WindDirectionDegrees,WindSpeedMPH,WindSpeedGustMPH,Humidity,HourlyPrecipIn,Conditions,Clouds,dailyrainin,SoftwareType,DateUTC
2013-05-31 00:02:00,43.0,-99.9,30.02,South,187,15.0,18.0,-999,-99.99,,,-99.99,,2013-05-31 08:02:00,
2013-05-31 00:11:00,43.0,-99.9,30.02,South,186,15.0,19.0,-999,-99.99,,,-99.99,,2013-05-31 08:11:00,
2013-05-31 00:22:00,43.0,-99.9,30.03,South,188,15.0,19.0,-999,-99.99,,,-99.99,,2013-05-31 08:22:00,
2013-05-31 00:32:00,43.0,-99.9,30.03,South,187,14.0,19.0,-999,-99.99,,,-99.99,,2013-05-31 08:32:00,
2013-05-31 00:42:00,43.0,-99.9,30.03,SSW,193,17.0,20.0,-999,-99.99,,,-99.99,,2013-05-31 08:42:00,
2013-05-31 00:52:00,43.0,-99.9,30.04,SSW,194,17.0,20.0,-999,-99.99,,,-99.99,,2013-05-31 08:52:00,
2013-05-31 01:01:00,43.0,-99.9,30.04,SSW,194,17.0,20.0,-999,-99.99,,,-99.99,,2013-05-31 09:01:00,
2013-05-31 01:11:00,43.0,-99.9,30.04,SSW,194,16.0,20.0,-999,-99.99,,,-99.99,,2013-05-31 09:11:00,
2013-05-31 01:21:00,43.0,-99.9,30.04,South,188,14.0,18.0,-999,-99.99,,,-99.99,,2013-05-31 09:21:00,
2013-05-31 01:32:00,43.0,-99.9,30.04,South,190,17.0,19.0,-999,-99.99,,,-99.99,,2013-05-31 09:32:00,
2013-05-31 01:43:00,42.0,-99.9,30.05,South,191,18.0,22.0,-999,-99.99,,,-99.99,,2013-05-31 09:43:00,
2013-05-31 01:53:00,42.0,-99.9,30.05,SSW,201,18.0,22.0,-999,-99.99,,,-99.99,,2013-05-31 09:53:00,
2013-05-31 02:02:00,42.0,-99.9,30.05,SSW,203,18.0,22.0,-999,-99.99,,,-99.99,,2013-05-31 10:02:00,
2013-05-31 02:12:00,42.0,-99.9,30.05,SSW,206,16.0,21.0,-999,-99.99,,,-99.99,,2013-05-31 10:12:00,
2013-05-31 02:23:00,42.0,-99.9,30.05,SSW,201,18.0,20.0,-999,-99.99,,,-99.99,,2013-05-31 10:23:00,
2013-05-31 02:33:00,42.0,-99.9,30.05,SSW,206,19.0,23.0,-999,-99.99,,,-99.99,,2013-05-31 10:33:00,
2013-05-31 02:42:00,42.0,-99.9,30.05,SSW,206,17.0,22.0,-999,-99.99,,,-99.99,,2013-05-31 10:42:00,
2013-05-31 02:52:00,42.0,-99.9,30.05,SSW,205,16.0,22.0,-999,-99.99,,,-99.99,,2013-05-31 10:52:00,
2013-05-31 03:02:00,42.0,-99.9,30.05,SSW,199,18.0,21.0,-999,-99.99,,,-99.99,,2013-05-31 11:02:00,
2013-05-31 03:12:00,42.0,-99.9,30.05,SSW,204,17.0,22.0,-999,-99.99,,,-99.99,,2013-05-31 11:12:00,
2013-05-31 03:22:00,42.0,-99.9,30.05,SSW,206,15.0,20.0,-999,-99.99,,,-99.99,,2013-05-31 11:22:00,
2013-05-31 03:32:00,42.0,-99.9,30.05,SSW,201,17.0,19.0,-999,-99.99,,,-99.99,,2013-05-31 11:32:00,
2013-05-31 03:42:00,43.0,-99.9,30.06,SSW,201,17.0,19.0,-999,-99.99,,,-99.99,,2013-05-31 11:42:00,
2013-05-31 03:52:00,43.0,-99.9,30.06,SSW,198,15.0,18.0,-999,-99.99,,,-99.99,,2013-05-31 11:52:00,
2013-05-31 04:01:00,43.0,-99.9,30.06,SSW,193,16.0,18.0,-999,-99.99,,,-99.99,,2013-05-31 12:01:00,
2013-05-31 04:11:00,43.0,-99.9,30.06,South,189,14.0,18.0,-999,-99.99,,,-99.99,,2013-05-31 12:11:00,
2013-05-31 04:22:00,43.0,-99.9,30.06,South,190,15.0,18.0,-999,-99.99,,,-99.99,,2013-05-31 12:22:00,
2013-05-31 04:32:00,43.0,-99.9,30.06,SSW,193,15.0,18.0,-999,-99.99,,,-99.99,,2013-05-31 12:32:00,
2013-05-31 04:42:00,44.0,-99.9,30.06,South,187,13.0,17.0,-999,-99.99,,,-99.99,,2013-05-31 12:42:00,
2013-05-31 04:52:00,44.0,-99.9,30.06,South,188,14.0,18.0,-999,-99.99,,,-99.99,,2013-05-31 12:52:00,
2013-05-31 05:01:00,44.0,-99.9,30.06,SSW,192,16.0,19.0,-999,-99.99,,,-99.99,,2013-05-31 13:01:00,
2013-05-31 05:11:00,44.0,-99.9,30.06,SSW,193,16.0,19.0,-999,-99.99,,,-99.99,,2013-05-31 13:11:00,
2013-05-31 05:21:00,44.0,-99.9,30.06,SSW,194,16.0,19.0,-999,-99.99,,,-99.99,,2013-05-31 13:21:00,
2013-05-31 05:32:00,44.0,-99.9,30.07,SSW,193,16.0,18.0,-999,-99.99,,,-99.99,,2013-05-31 13:32:00,
2013-05-31 05:42:00,44.0,-99.9,30.07,South,188,14.0,19.0,-999,-99.99,,,-99.99,,2013-05-31 13:42:00,
2013-05-31 05:52:00,44.0,-99.9,30.07,South,191,16.0,19.0,-999,-99.99,,,-99.99,,2013-05-31 13:52:00,
2013-05-31 06:02:00,44.0,-99.9,30.07,South,188,15.0,19.0,-999,-99.99,,,-99.99,,2013-05-31 14:02:00,
2013-05-31 06:11:00,44.0,-99.9,30.07,South,189,18.0,20.0,-999,-99.99,,,-99.99,,2013-05-31 14:11:00,
2013-05-31 06:22:00,44.0,-99.9,30.07,SSW,193,19.0,23.0,-999,-99.99,,,-99.99,,2013-05-31 14:22:00,
2013-05-31 06:32:00,44.0,-99.9,30.07,South,188,13.0,20.0,-999,-99.99,,,-99.99,,2013-05-31 14:32:00,
2013-05-31 06:42:00,44.0,-99.9,30.07,South,184,13.0,17.0,-999,-99.99,,,-99.99,,2013-05-31 14:42:00,
2013-05-31 06:52:00,45.0,-99.9,30.07,South,183,14.0,17.0,-999,-99.99,,,-99.99,,2013-05-31 14:52:00,
2013-05-31 07:01:00,45.0,-99.9,30.07,South,184,13.0,17.0,-999,-99.99,,,-99.99,,2013-05-31 15:01:00,
2013-05-31 07:11:00,45.0,-99.9,30.08,South,182,15.0,19.0,-999,-99.99,,,-99.99,,2013-05-31 15:11:00,
2013-05-31 07:22:00,45.0,-99.9,30.08,South,181,16.0,20.0,-999,-99.99,,,-99.99,,2013-05-31 15:22:00,
2013-05-31 07:33:00,45.0,-99.9,30.08,South,185,15.0,20.0,-999,-99.99,,,-99.99,,2013-05-31 15:33:00,
2013-05-31 07:43:00,46.0,-99.9,30.08,South,185,17.0,22.0,-999,-99.99,,,-99.99,,2013-05-31 15:43:00,
2013-05-31 07:53:00,46.0,-99.9,30.08,South,185,16.0,20.0,-999,-99.99,,,-99.99,,2013-05-31 15:53:00,
2013-05-31 08:03:00,46.0,-99.9,30.09,South,185,16.0,23.0,-999,-99.99,,,-99.99,,2013-05-31 16:03:00,
2013-05-31 08:12:00,46.0,-99.9,30.09,South,186,15.0,21.0,-999,-99.99,,,-99.99,,2013-05-31 16:12:00,
2013-05-31 08:22:00,46.0,-99.9,30.09,South,188,15.0,21.0,-999,-99.99,,,-99.99,,2013-05-31 16:22:00,
2013-05-31 08:33:00,46.0,-99.9,30.09,South,186,15.0,20.0,-999,-99.99,,,-99.99,,2013-05-31 16:33:00,
2013-05-31 08:42:00,46.0,-99.9,30.09,South,184,15.0,20.0,-999,-99.99,,,-99.99,,2013-05-31 16:42:00,
2013-05-31 08:53:00,46.0,-99.9,30.09,South,185,16.0,20.0,-999,-99.99,,,-99.99,,2013-05-31 16:53:00,
2013-05-31 09:02:00,46.0,-99.9,30.09,South,187,14.0,20.0,-999,-99.99,,,-99.99,,2013-05-31 17:02:00,
2013-05-31 09:12:00,46.0,-99.9,30.09,South,186,14.0,19.0,-999,-99.99,,,-99.99,,2013-05-31 17:12:00,
2013-05-31 09:22:00,46.0,-99.9,30.10,South,184,14.0,20.0,-999,-99.99,,,-99.99,,2013-05-31 17:22:00,
2013-05-31 09:32:00,47.0,-99.9,30.10,South,185,14.0,19.0,-999,-99.99,,,-99.99,,2013-05-31 17:32:00,
2013-05-31 09:42:00,47.0,-99.9,30.10,South,185,14.0,19.0,-999,-99.99,,,-99.99,,2013-05-31 17:42:00,
2013-05-31 09:52:00,47.0,-99.9,30.11,South,185,14.0,19.0,-999,-99.99,,,-99.99,,2013-05-31 17:52:00,
2013-05-31 10:02:00,47.0,-99.9,30.11,South,185,15.0,19.0,-999,-99.99,,,-99.99,,2013-05-31 18:02:00,
2013-05-31 10:12:00,47.0,-99.9,30.11,South,185,15.0,19.0,-999,-99.99,,,-99.99,,2013-05-31 18:12:00,
2013-05-31 10:22:00,47.0,-99.9,30.11,South,187,14.0,18.0,-999,-99.99,,,-99.99,,2013-05-31 18:22:00,
2013-05-31 10:32:00,47.0,-99.9,30.11,South,189,16.0,20.0,-999,-99.99,,,-99.99,,2013-05-31 18:32:00,
2013-05-31 10:42:00,47.0,-99.9,30.11,South,188,16.0,21.0,-999,-99.99,,,-99.99,,2013-05-31 18:42:00,
2013-05-31 10:52:00,46.0,-99.9,30.11,South,189,17.0,21.0,-999,-99.99,,,-99.99,,2013-05-31 18:52:00,
2013-05-31 11:02:00,46.0,-99.9,30.11,South,189,16.0,19.0,-999,-99.99,,,-99.99,,2013-05-31 19:02:00,
2013-05-31 11:11:00,46.0,-99.9,30.12,South,188,14.0,18.0,-999,-99.99,,,-99.99,,2013-05-31 19:11:00,
2013-05-31 11:22:00,46.0,-99.9,30.12,South,189,15.0,18.0,-999,-99.99,,,-99.99,,2013-05-31 19:22:00,
2013-05-31 11:32:00,47.0,-99.9,30.12,South,187,12.0,16.0,-999,-99.99,,,-99.99,,2013-05-31 19:32:00,
2013-05-31 11:42:00,47.0,-99.9,30.11,South,188,12.0,15.0,-999,-99.99,,,-99.99,,2013-05-31 19:42:00,
2013-05-31 11:52:00,47.0,-99.9,30.11,South,187,12.0,16.0,-999,-99.99,,,-99.99,,2013-05-31 19:52:00,
2013-05-31 12:02:00,47.0,-99.9,30.11,South,188,13.0,18.0,-999,-99.99,,,-99.99,,2013-05-31 20:02:00,
2013-05-31 12:11:00,47.0,-99.9,30.12,South,189,12.0,15.0,-999,-99.99,,,-99.99,,2013-05-31 20:11:00,
2013-05-31 12:22:00,47.0,-99.9,30.12,South,185,12.0,17.0,-999,-99.99,,,-99.99,,2013-05-31 20:22:00,
2013-05-31 12:32:00,47.0,-99.9,30.12,South,188,13.0,17.0,-999,-99.99,,,-99.99,,2013-05-31 20:32:00,
2013-05-31 12:42:00,47.0,-99.9,30.12,South,187,13.0,19.0,-999,-99.99,,,-99.99,,2013-05-31 20:42:00,
2013-05-31 12:52:00,47.0,-99.9,30.12,South,189,13.0,17.0,-999,-99.99,,,-99.99,,2013-05-31 20:52:00,
2013-05-31 13:01:00,47.0,-99.9,30.12,South,190,15.0,19.0,-999,-99.99,,,-99.99,,2013-05-31 21:01:00,
2013-05-31 13:11:00,47.0,-99.9,30.12,South,190,15.0,19.0,-999,-99.99,,,-99.99,,2013-05-31 21:11:00,
2013-05-31 13:22:00,47.0,-99.9,30.12,South,189,14.0,17.0,-999,-99.99,,,-99.99,,2013-05-31 21:22:00,
2013-05-31 13:33:00,47.0,-99.9,30.12,South,190,13.0,18.0,-999,-99.99,,,-99.99,,2013-05-31 21:33:00,
2013-05-31 13:43:00,48.0,-99.9,30.12,South,188,13.0,17.0,-999,-99.99,,,-99.99,,2013-05-31 21:43:00,
2013-05-31 13:54:00,48.0,-99.9,30.12,South,189,13.0,16.0,-999,-99.99,,,-99.99,,2013-05-31 21:54:00,
2013-05-31 14:03:00,48.0,-99.9,30.12,South,190,12.0,16.0,-999,-99.99,,,-99.99,,2013-05-31 22:03:00,
2013-05-31 14:12:00,48.0,-99.9,30.12,South,190,11.0,15.0,-999,-99.99,,,-99.99,,2013-05-31 22:12:00,
2013-05-31 14:22:00,48.0,-99.9,30.12,South,188,11.0,14.0,-999,-99.99,,,-99.99,,2013-05-31 22:22:00,
2013-05-31 14:33:00,48.0,-99.9,30.12,South,190,11.0,14.0,-999,-99.99,,,-99.99,,2013-05-31 22:33:00,
2013-05-31 14:42:00,48.0,-99.9,30.12,South,189,10.0,13.0,-999,-99.99,,,-99.99,,2013-05-31 22:42:00,
2013-05-31 14:53:00,47.0,-99.9,30.12,South,186,10.0,13.0,-999,-99.99,,,-99.99,,2013-05-31 22:53:00,
2013-05-31 15:02:00,47.0,-99.9,30.12,South,188,10.0,13.0,-999,-99.99,,,-99.99,,2013-05-31 23:02:00,
2013-05-31 15:12:00,47.0,-99.9,30.12,South,187,10.0,13.0,-999,-99.99,,,-99.99,,2013-05-31 23:12:00,
2013-05-31 15:22:00,47.0,-99.9,30.12,South,187,10.0,13.0,-999,-99.99,,,-99.99,,2013-05-31 23:22:00,
2013-05-31 15:32:00,47.0,-99.9,30.12,South,186,10.0,14.0,-999,-99.99,,,-99.99,,2013-05-31 23:32:00,
2013-05-31 15:42:00,47.0,-99.9,30.12,SSW,192,12.0,14.0,-999,-99.99,,,-99.99,,2013-05-31 23:42:00,
2013-05-31 15:52:00,47.0,-99.9,30.12,South,190,11.0,14.0,-999,-99.99,,,-99.99,,2013-05-31 23:52:00,
2013-05-31 16:01:00,47.0,-99.9,30.12,SSW,193,11.0,13.0,-999,-99.99,,,-99.99,,2013-06-01 00:01:00,
2013-05-31 16:12:00,47.0,-99.9,30.12,South,190,7.0,13.0,-999,-99.99,,,-99.99,,2013-06-01 00:12:00,
2013-05-31 16:22:00,46.0,-99.9,30.12,SSW,201,12.0,14.0,-999,-99.99,,,-99.99,,2013-06-01 00:22:00,
2013-05-31 16:32:00,47.0,-99.9,30.12,South,190,10.0,13.0,-999,-99.99,,,-99.99,,2013-06-01 00:32:00,
2013-05-31 16:42:00,47.0,-99.9,30.12,South,191,10.0,13.0,-999,-99.99,,,-99.99,,2013-06-01 00:42:00,
2013-05-31 16:52:00,47.0,-99.9,30.12,South,189,9.0,13.0,-999,-99.99,,,-99.99,,2013-06-01 00:52:00,
2013-05-31 17:02:00,46.0,-99.9,30.12,SSW,209,11.0,14.0,-999,-99.99,,,-99.99,,2013-06-01 01:02:00,
2013-05-31 17:11:00,47.0,-99.9,30.12,SSW,198,12.0,14.0,-999,-99.99,,,-99.99,,2013-06-01 01:11:00,
2013-05-31 17:22:00,47.0,-99.9,30.12,SSW,194,11.0,15.0,-999,-99.99,,,-99.99,,2013-06-01 01:22:00,
2013-05-31 17:32:00,46.0,-99.9,30.12,SSW,197,11.0,14.0,-999,-99.99,,,-99.99,,2013-06-01 01:32:00,
2013-05-31 17:42:00,47.0,-99.9,30.12,SSW,193,11.0,14.0,-999,-99.99,,,-99.99,,2013-06-01 01:42:00,
2013-05-31 17:52:00,46.0,-99.9,30.12,SSW,197,12.0,15.0,-999,-99.99,,,-99.99,,2013-06-01 01:52:00,
2013-05-31 18:02:00,46.0,-99.9,30.12,SSW,204,12.0,16.0,-999,-99.99,,,-99.99,,2013-06-01 02:02:00,
2013-05-31 18:12:00,46.0,-99.9,30.12,SSW,209,12.0,16.0,-999,-99.99,,,-99.99,,2013-06-01 02:12:00,
2013-05-31 18:22:00,46.0,-99.9,30.12,SSW,213,11.0,14.0,-999,-99.99,,,-99.99,,2013-06-01 02:22:00,
2013-05-31 18:32:00,45.0,-99.9,30.12,SSW,211,12.0,14.0,-999,-99.99,,,-99.99,,2013-06-01 02:32:00,
2013-05-31 18:42:00,45.0,-99.9,30.13,SSW,201,14.0,16.0,-999,-99.99,,,-99.99,,2013-06-01 02:42:00,
2013-05-31 18:52:00,45.0,-99.9,30.13,SSW,200,15.0,17.0,-999,-99.99,,,-99.99,,2013-06-01 02:52:00,
2013-05-31 19:02:00,46.0,-99.9,30.12,SW,215,11.0,17.0,-999,-99.99,,,-99.99,,2013-06-01 03:02:00,
2013-05-31 19:11:00,45.0,-99.9,30.12,SSW,211,12.0,16.0,-999,-99.99,,,-99.99,,2013-06-01 03:11:00,
2013-05-31 19:22:00,45.0,-99.9,30.12,SW,215,11.0,16.0,-999,-99.99,,,-99.99,,2013-06-01 03:22:00,
2013-05-31 19:33:00,45.0,-99.9,30.13,SSW,200,15.0,17.0,-999,-99.99,,,-99.99,,2013-06-01 03:33:00,
2013-05-31 19:43:00,46.0,-99.9,30.14,South,185,12.0,16.0,-999,-99.99,,,-99.99,,2013-06-01 03:43:00,
2013-05-31 19:53:00,46.0,-99.9,30.14,South,187,11.0,16.0,-999,-99.99,,,-99.99,,2013-06-01 03:53:00,
2013-05-31 20:03:00,46.0,-99.9,30.14,SSW,193,15.0,18.0,-999,-99.99,,,-99.99,,2013-06-01 04:03:00,
2013-05-31 20:13:00,45.0,-99.9,30.14,SSW,196,15.0,16.0,-999,-99.99,,,-99.99,,2013-06-01 04:13:00,
2013-05-31 20:23:00,46.0,-99.9,30.14,South,188,13.0,17.0,-999,-99.99,,,-99.99,,2013-06-01 04:23:00,
2013-05-31 20:33:00,45.0,-99.9,30.14,South,190,13.0,17.0,-999,-99.99,,,-99.99,,2013-06-01 04:33:00,
2013-05-31 20:42:00,45.0,-99.9,30.14,South,188,14.0,17.0,-999,-99.99,,,-99.99,,2013-06-01 04:42:00,
2013-05-31 20:53:00,45.0,-99.9,30.14,South,190,13.0,17.0,-999,-99.99,,,-99.99,,2013-06-01 04:53:00,
2013-05-31 21:02:00,46.0,-99.9,30.14,South,189,15.0,18.0,-999,-99.99,,,-99.99,,2013-06-01 05:02:00,
2013-05-31 21:12:00,45.0,-99.9,30.14,South,190,15.0,19.0,-999,-99.99,,,-99.99,,2013-06-01 05:12:00,
2013-05-31 21:22:00,45.0,-99.9,30.14,SSW,193,16.0,19.0,-999,-99.99,,,-99.99,,2013-06-01 05:22:00,
2013-05-31 21:32:00,45.0,-99.9,30.14,South,190,14.0,18.0,-999,-99.99,,,-99.99,,2013-06-01 05:32:00,
2013-05-31 21:43:00,45.0,-99.9,30.14,SSW,194,15.0,19.0,-999,-99.99,,,-99.99,,2013-06-01 05:43:00,
2013-05-31 21:52:00,45.0,-99.9,30.14,SSW,200,17.0,19.0,-999,-99.99,,,-99.99,,2013-06-01 05:52:00,
2013-05-31 22:01:00,45.0,-99.9,30.14,South,191,15.0,19.0,-999,-99.99,,,-99.99,,2013-06-01 06:01:00,
2013-05-31 22:12:00,45.0,-99.9,30.14,South,188,13.0,17.0,-999,-99.99,,,-99.99,,2013-06-01 06:12:00,
2013-05-31 22:22:00,45.0,-99.9,30.14,South,188,12.0,17.0,-999,-99.99,,,-99.99,,2013-06-01 06:22:00,
2013-05-31 22:32:00,44.0,-99.9,30.14,South,187,11.0,16.0,-999,-99.99,,,-99.99,,2013-06-01 06:32:00,
2013-05-31 22:42:00,44.0,-99.9,30.14,South,188,11.0,15.0,-999,-99.99,,,-99.99,,2013-06-01 06:42:00,
2013-05-31 22:52:00,44.0,-99.9,30.14,SSW,201,15.0,20.0,-999,-99.99,,,-99.99,,2013-06-01 06:52:00,
2013-05-31 23:01:00,44.0,-99.9,30.15,SW,215,13.0,17.0,-999,-99.99,,,-99.99,,2013-06-01 07:01:00,
2013-05-31 23:11:00,44.0,-99.9,30.15,SW,214,13.0,18.0,-999,-99.99,,,-99.99,,2013-06-01 07:11:00,
2013-05-31 23:22:00,44.0,-99.9,30.15,SSW,207,13.0,18.0,-999,-99.99,,,-99.99,,2013-06-01 07:22:00,
2013-05-31 23:32:00,44.0,-99.9,30.16,SSW,195,17.0,19.0,-999,-99.99,,,-99.99,,2013-06-01 07:32:00,
2013-05-31 23:42:00,44.0,-99.9,30.16,SSW,200,16.0,18.0,-999,-99.99,,,-99.99,,2013-06-01 07:42:00,
2013-05-31 23:52:00,44.0,-99.9,30.16,SSW,203,13.0,18.0,-999,-99.99,,,-99.99,,2013-06-01 07:52:00,